TimeMST,TemperatureF,Dew PointF,Humidity,Sea Level PressureIn,VisibilityMPH,Wind Direction,Wind SpeedMPH,Gust SpeedMPH,PrecipitationIn,Events,Conditions,WindDirDegrees,DateUTC
12:57 AM,54.0,45.0,72,30.17,10.0,NNE,3.5,-,N/A,,Clear,20,2013-11-25 07:57:00
1:57 AM,52.0,45.0,77,30.17,10.0,Calm,Calm,-,N/A,,Clear,0,2013-11-25 08:57:00
2:57 AM,52.0,45.0,77,30.17,10.0,Calm,Calm,-,N/A,,Clear,0,2013-11-25 09:57:00
3:57 AM,51.1,43.0,74,30.16,10.0,NNW,3.5,-,N/A,,Clear,340,2013-11-25 10:57:00
4:57 AM,51.1,43.0,74,30.17,10.0,Calm,Calm,-,N/A,,Clear,0,2013-11-25 11:57:00
5:57 AM,51.1,44.1,77,30.17,10.0,Calm,Calm,-,N/A,,Clear,0,2013-11-25 12:57:00
6:57 AM,48.9,43.0,80,30.18,10.0,Calm,Calm,-,N/A,,Clear,0,2013-11-25 13:57:00
7:57 AM,51.1,44.1,77,30.20,10.0,Calm,Calm,-,N/A,,Clear,0,2013-11-25 14:57:00
8:57 AM,57.0,43.0,59,30.22,7.0,North,5.8,-,N/A,,Clear,10,2013-11-25 15:57:00
9:57 AM,61.0,42.1,50,30.23,10.0,North,9.2,-,N/A,,Clear,350,2013-11-25 16:57:00
10:57 AM,63.0,43.0,48,30.23,10.0,North,9.2,-,N/A,,Clear,350,2013-11-25 17:57:00
11:57 AM,66.0,42.1,42,30.21,10.0,North,11.5,-,N/A,,Clear,360,2013-11-25 18:57:00
12:57 PM,68.0,42.1,39,30.19,10.0,North,5.8,-,N/A,,Clear,350,2013-11-25 19:57:00
1:57 PM,70.0,39.9,33,30.16,10.0,North,15.0,-,N/A,,Clear,10,2013-11-25 20:57:00
2:57 PM,70.0,41.0,35,30.15,10.0,Variable,3.5,-,N/A,,Clear,0,2013-11-25 21:57:00
3:57 PM,70.0,39.0,32,30.15,10.0,NNE,12.7,-,N/A,,Clear,20,2013-11-25 22:57:00
4:57 PM,68.0,39.9,36,30.16,10.0,North,10.4,-,N/A,,Clear,10,2013-11-25 23:57:00
5:57 PM,64.0,42.1,45,30.16,10.0,North,5.8,-,N/A,,Clear,360,2013-11-26 00:57:00
6:57 PM,63.0,42.1,46,30.17,10.0,NNW,3.5,-,N/A,,Clear,330,2013-11-26 01:57:00
7:57 PM,60.1,43.0,53,30.18,10.0,NNW,3.5,-,N/A,,Clear,340,2013-11-26 02:57:00
8:57 PM,60.1,43.0,53,30.18,10.0,North,4.6,-,N/A,,Clear,10,2013-11-26 03:57:00
9:57 PM,55.9,46.0,69,30.20,10.0,SSW,3.5,-,N/A,,Clear,200,2013-11-26 04:57:00
10:57 PM,55.0,45.0,69,30.20,10.0,Calm,Calm,-,N/A,,Clear,0,2013-11-26 05:57:00
11:57 PM,55.9,45.0,67,30.21,10.0,NE,3.5,-,N/A,,Clear,50,2013-11-26 06:57:00